Weather Roundup
Issued by NWS Corpus Christi, TX

Home | Current Version | Previous Version | Text Only | Print | Product List | Glossary On
Versions: 1 2 3 4 5 6 7 8 9 10 11 12 13 14 15 16 17 18 19 20 21 22 23 24 25 26 27 28 29 30 31 32 33 34 35 36 37 38 39 40 41 42 43 44 45 46 47 48 49 50
000
ASUS44 KCRP 181510
HRRCRP

SOUTH TEXAS REGIONAL WEATHER ROUNDUP
NATIONAL WEATHER SERVICE CORPUS CHRISTI TX
900 AM CST MON DEC 18 2017


TXZ229>244-181600-
...CORPUS CHRISTI AREA OBSERVATIONS...

CITY           SKY/WX    TMP DP  RH WIND       PRES   REMARKS
CORPUS CHRISTI LGT RAIN  56  56 100 NE6       30.12F FOG
NAS CORPUS CHR CLOUDY    59  56  89 NE8       30.12F
ROCKPORT       CLOUDY    57  56  96 N6        30.15S FOG
KINGSVILLE ARP LGT RAIN  56  56 100 W3        30.15R
KINGSVILLE NAS CLOUDY    56  56 100 E7        30.13F FOG
ALICE          CLOUDY    55  53  93 N6        30.13R FOG
$$

...VICTORIA AREA OBSERVATIONS...

CITY           SKY/WX    TMP DP  RH WIND       PRES   REMARKS
PORT LAVACA    CLOUDY    57  54  91 NE5       30.16R
VICTORIA       LGT RAIN  57  54  89 NE6       30.16R
BEEVILLE       CLOUDY    55  54  99 NE6       30.14S FOG
PLEASANTON     CLOUDY    52  52 100 CALM      30.16S FOG
SAN ANTONIO    DRZL/FOG  52  50  93 NE5       30.16R VSB 1
$$

...LAREDO AREA OBSERVATIONS...

CITY           SKY/WX    TMP DP  RH WIND       PRES   REMARKS
LAREDO         CLOUDY    52  52 100 E5        30.16R
COTULLA        CLOUDY    51  50  96 CALM      30.16R FOG
DEL RIO        CLOUDY    49  48  97 E5        30.15R
MCALLEN        CLOUDY    58  55  90 N7        30.16R FOG
HEBBRONVILLE   CLOUDY    52  52  99 CALM      30.15R FOG
$$

...OTHER TEXAS OBSERVATIONS...

CITY           SKY/WX    TMP DP  RH WIND       PRES   REMARKS
BROWNSVILLE    CLOUDY    62  59  90 VRB5      30.13R
HOUSTON        CLOUDY    59  55  87 N7        30.19R
COL. STATION   CLOUDY    53  52  96 NE8       30.20R FOG
AUSTIN         FOG       51  51 100 NE5       30.19R VSB 1/2
WACO           FOG       47  47 100 E5        30.20R VSB 1/4
FORT WORTH     FOG       49  47  93 SE7       30.19R VSB 1/4
WICHITA FALLS  FOG       42  42 100 SE3       30.17R VSB 1/4
LUBBOCK        MOSUNNY   39  27  62 CALM      30.12R
EL PASO        PTSUNNY   45  43  93 N6        30.11S
$$

...MARINE OBSERVATIONS...

STATION/POSITION TIME  SKY/WX   TEMP    WIND        PRES    VSBY  WAVE   SWELL
                                AIR SEA DIR/SP/G                  HT/PER HT/PER
                 (UTC)          (F)     (DEG/KT/KT) (MB)    (MI)  (FT/S) (FT/S)
PORT ARANSAS     NOT AVBL
BUOY 90 E PORT A 1450            73 71  110/ 10/ 12 1020.1R         4/ 8   3/ 8
BUOY 200 E PT IS 1350            76 76  150/ 10/ 12 1020.7          4/ 7   3/ 7
BUOY 15 E GALVES 1350            62 61   50/ 10/ 12 1021.1          3/ 8   2/ 8
$$



USA.gov is the U.S. government's official web portal to all federal, state and local government web resources and services.